| time (UTC) | temp F | wind direction | speed MPH | gust MPH | rain 1hr in | rain 24hr in | rain mn in | humidity % | barometer mb |
| 20260506102503 | 60 | 245 | 1.0 | 3.0 | 0.00 | 0.00 | 0.00 | 85 | 1015.1 |
| 20260506102003 | 60 | 259 | 0.0 | 3.0 | 0.00 | 0.00 | 0.00 | 85 | 1015.1 |
| 20260506101504 | 60 | 197 | 0.0 | 2.0 | 0.00 | 0.00 | 0.00 | 85 | 1015.1 |
| 20260506094004 | 60 | 135 | 0.0 | 4.0 | 0.00 | 0.00 | 0.00 | 84 | 1015.3 |
| 20260506093507 | 60 | 124 | 0.0 | 2.0 | 0.00 | 0.00 | 0.00 | 84 | 1015.4 |
| 20260506093014 | 60 | 242 | 0.0 | 2.0 | 0.00 | 0.00 | 0.00 | 84 | 1015.5 |
| 20260506092508 | 60 | 242 | 0.0 | 2.0 | 0.00 | 0.00 | 0.00 | 84 | 1015.3 |
| 20260506092010 | 60 | 255 | 0.0 | 2.0 | 0.00 | 0.00 | 0.00 | 83 | 1015.2 |
| 20260506091522 | 60 | 199 | 0.0 | 1.0 | 0.00 | 0.00 | 0.00 | 83 | 1015.4 |
| 20260506084003 | 61 | 175 | 0.0 | 2.0 | 0.00 | 0.00 | 0.00 | 81 | 1015.8 |
| 20260506083503 | 61 | 217 | 0.0 | 3.0 | 0.00 | 0.00 | 0.00 | 81 | 1015.7 |
| 20260506083008 | 61 | 203 | 0.0 | 3.0 | 0.00 | 0.00 | 0.00 | 81 | 1015.8 |
| 20260506082506 | 61 | 207 | 0.0 | 3.0 | 0.00 | 0.00 | 0.00 | 81 | 1015.8 |
| 20260506082007 | 61 | 214 | 1.0 | 3.0 | 0.00 | 0.00 | 0.00 | 81 | 1015.8 |
| 20260506073503 | 61 | 215 | 0.0 | 4.0 | 0.00 | 0.00 | 0.00 | 80 | 1015.8 |
| 20260506073008 | 61 | 235 | 1.0 | 3.0 | 0.00 | 0.00 | 0.00 | 80 | 1015.8 |
| 20260506061006 | 62 | 170 | 0.0 | 2.0 | 0.00 | 0.00 | 0.00 | 77 | 1015.9 |
| 20260506060506 | 62 | 206 | 0.0 | 3.0 | 0.00 | 0.00 | 0.00 | 76 | 1016.1 |
| 20260506051002 | 63 | 263 | 1.0 | 3.0 | 0.00 | 0.00 | 0.00 | 74 | 1016.0 |
| 20260506050508 | 64 | 221 | 0.0 | 4.0 | 0.00 | 0.00 | 0.00 | 74 | 1016.0 |
| 20260506045005 | 64 | 250 | 1.0 | 6.0 | 0.00 | 0.00 | 0.00 | 73 | 1016.1 |
| 20260506044518 | 64 | 122 | 1.0 | 3.0 | 0.00 | 0.00 | 0.00 | 73 | 1016.1 |
| 20260506041531 | 65 | 240 | 0.0 | 5.0 | 0.00 | 0.00 | 0.00 | 72 | 1016.3 |
| 20260506041009 | 65 | 214 | 1.0 | 3.0 | 0.00 | 0.00 | 0.00 | 71 | 1016.4 |
| 20260506040512 | 65 | 222 | 1.0 | 3.0 | 0.00 | 0.00 | 0.00 | 71 | 1016.4 |
| 20260506040025 | 65 | 169 | 1.0 | 3.0 | 0.00 | 0.00 | 0.00 | 71 | 1016.4 |
| 20260506035504 | 65 | 188 | 0.0 | 4.0 | 0.00 | 0.00 | 0.00 | 71 | 1016.4 |
| 20260506035007 | 65 | 142 | 1.0 | 4.0 | 0.00 | 0.00 | 0.00 | 71 | 1016.5 |
| 20260506032513 | 66 | 130 | 2.0 | 9.0 | 0.00 | 0.00 | 0.00 | 70 | 1016.1 |
| 20260506032010 | 66 | 275 | 0.0 | 5.0 | 0.00 | 0.00 | 0.00 | 70 | 1016.1 |
| 20260506031526 | 66 | 268 | 1.0 | 5.0 | 0.00 | 0.00 | 0.00 | 69 | 1016.0 |
| 20260506031009 | 66 | 228 | 1.0 | 4.0 | 0.00 | 0.00 | 0.00 | 69 | 1016.1 |
| 20260506030513 | 66 | 134 | 1.0 | 4.0 | 0.00 | 0.00 | 0.00 | 68 | 1016.1 |
| 20260506030031 | 66 | 113 | 1.0 | 4.0 | 0.00 | 0.00 | 0.00 | 68 | 1016.1 |
| 20260506023505 | 67 | 115 | 1.0 | 2.0 | 0.00 | 0.00 | 0.00 | 65 | 1016.3 |
| 20260506023015 | 67 | 167 | 0.0 | 2.0 | 0.00 | 0.00 | 0.00 | 64 | 1016.4 |
| 20260506022506 | 67 | 168 | 0.0 | 2.0 | 0.00 | 0.00 | 0.00 | 63 | 1016.5 |
| 20260506022007 | 68 | 128 | 0.0 | 2.0 | 0.00 | 0.00 | 0.00 | 63 | 1016.4 |
| 20260506021516 | 68 | 211 | 0.0 | 2.0 | 0.00 | 0.00 | 0.00 | 62 | 1016.4 |
| 20260506021010 | 68 | 259 | 1.0 | 2.0 | 0.00 | 0.00 | 0.00 | 62 | 1016.4 |
| 20260506013022 | 70 | 62 | 0.0 | 2.0 | 0.00 | 0.00 | 0.00 | 61 | 1015.9 |
| 20260506012506 | 70 | 60 | 0.0 | 4.0 | 0.00 | 0.00 | 0.00 | 60 | 1015.8 |
| 20260506012008 | 70 | 105 | 0.0 | 4.0 | 0.00 | 0.00 | 0.00 | 60 | 1015.8 |
| 20260506011517 | 70 | 123 | 0.0 | 4.0 | 0.00 | 0.00 | 0.00 | 59 | 1015.7 |
| 20260506011008 | 70 | 210 | 0.0 | 3.0 | 0.00 | 0.00 | 0.00 | 59 | 1015.5 |
| 20260506010505 | 71 | 129 | 1.0 | 4.0 | 0.00 | 0.00 | 0.00 | 59 | 1015.2 |
| 20260506010004 | 71 | 120 | 1.0 | 4.0 | 0.00 | 0.00 | 0.00 | 58 | 1015.1 |
| 20260506005503 | 71 | 156 | 1.0 | 3.0 | 0.00 | 0.00 | 0.00 | 58 | 1015.1 |
| 20260506005005 | 71 | 183 | 0.0 | 3.0 | 0.00 | 0.00 | 0.00 | 57 | 1015.0 |
| 20260506004506 | 72 | 213 | 1.0 | 3.0 | 0.00 | 0.00 | 0.00 | 57 | 1014.9 |
| 20260506004002 | 72 | 134 | 0.0 | 3.0 | 0.00 | 0.00 | 0.00 | 56 | 1014.9 |
| 20260506003504 | 72 | 123 | 1.0 | 3.0 | 0.00 | 0.00 | 0.00 | 56 | 1014.8 |
| 20260506003008 | 73 | 152 | 0.0 | 3.0 | 0.00 | 0.00 | 0.00 | 55 | 1014.7 |
| 20260506002503 | 73 | 107 | 0.0 | 3.0 | 0.00 | 0.00 | 0.00 | 54 | 1014.8 |
| 20260506002007 | 73 | 127 | 0.0 | 1.0 | 0.00 | 0.00 | 0.00 | 52 | 1014.7 |
| 20260506001509 | 74 | 162 | 0.0 | 2.0 | 0.00 | 0.00 | 0.00 | 51 | 1014.8 |
| 20260506001004 | 74 | 78 | 0.0 | 3.0 | 0.00 | 0.00 | 0.00 | 50 | 1014.7 |
| 20260506000507 | 75 | 200 | 0.0 | 3.0 | 0.00 | 0.00 | 0.00 | 48 | 1014.6 |
| 20260506000019 | 75 | 214 | 0.0 | 3.0 | 0.00 | 0.00 | 0.00 | 48 | 1014.6 |
| 20260505235508 | 76 | 129 | 1.0 | 3.0 | 0.00 | 0.00 | 0.00 | 47 | 1014.5 |
| 20260505235003 | 76 | 134 | 1.0 | 5.0 | 0.00 | 0.00 | 0.00 | 46 | 1014.5 |
| 20260505234512 | 76 | 200 | 1.0 | 5.0 | 0.00 | 0.00 | 0.00 | 44 | 1014.6 |
| 20260505234003 | 77 | 121 | 1.0 | 5.0 | 0.00 | 0.00 | 0.00 | 41 | 1014.6 |
| 20260505233506 | 77 | 190 | 1.0 | 5.0 | 0.00 | 0.00 | 0.00 | 40 | 1014.6 |
| 20260505233004 | 77 | 177 | 1.0 | 5.0 | 0.00 | 0.00 | 0.00 | 40 | 1014.7 |
| 20260505232503 | 78 | 122 | 1.0 | 2.0 | 0.00 | 0.00 | 0.00 | 39 | 1014.7 |
| 20260505232004 | 78 | 129 | 1.0 | 2.0 | 0.00 | 0.00 | 0.00 | 39 | 1014.6 |
| 20260505231506 | 78 | 196 | 1.0 | 2.0 | 0.00 | 0.00 | 0.00 | 39 | 1014.7 |
| 20260505231004 | 79 | 134 | 1.0 | 5.0 | 0.00 | 0.00 | 0.00 | 38 | 1014.7 |
| 20260505230504 | 79 | 265 | 1.0 | 5.0 | 0.00 | 0.00 | 0.00 | 38 | 1014.7 |
| 20260505225506 | 80 | 234 | 1.0 | 5.0 | 0.00 | 0.00 | 0.00 | 36 | 1014.9 |
| 20260505225007 | 80 | 134 | 1.0 | 6.0 | 0.00 | 0.00 | 0.00 | 35 | 1014.7 |
| 20260505224524 | 81 | 13 | 2.0 | 6.0 | 0.00 | 0.00 | 0.00 | 34 | 1014.7 |
| 20260505224002 | 82 | 135 | 2.0 | 4.0 | 0.00 | 0.00 | 0.00 | 35 | 1014.6 |
| 20260505223505 | 81 | 137 | 2.0 | 4.0 | 0.00 | 0.00 | 0.00 | 35 | 1014.5 |
| 20260505223007 | 82 | 205 | 0.0 | 5.0 | 0.00 | 0.00 | 0.00 | 35 | 1014.5 |
| 20260505222504 | 82 | 169 | 1.0 | 5.0 | 0.00 | 0.00 | 0.00 | 35 | 1014.5 |
| 20260505222005 | 82 | 151 | 1.0 | 5.0 | 0.00 | 0.00 | 0.00 | 35 | 1014.6 |
| 20260505221504 | 81 | 120 | 1.0 | 6.0 | 0.00 | 0.00 | 0.00 | 35 | 1014.6 |
| 20260505221004 | 81 | 101 | 2.0 | 9.0 | 0.00 | 0.00 | 0.00 | 35 | 1014.8 |
| 20260505220503 | 82 | 172 | 3.0 | 9.0 | 0.00 | 0.00 | 0.00 | 34 | 1014.8 |
| 20260505220023 | 82 | 267 | 1.0 | 5.0 | 0.00 | 0.00 | 0.00 | 35 | 1014.8 |
| 20260505215505 | 81 | 215 | 1.0 | 6.0 | 0.00 | 0.00 | 0.00 | 36 | 1014.7 |
| 20260505215009 | 81 | 141 | 1.0 | 6.0 | 0.00 | 0.00 | 0.00 | 35 | 1014.7 |
| 20260505214524 | 81 | 129 | 2.0 | 5.0 | 0.00 | 0.00 | 0.00 | 35 | 1014.9 |
| 20260505214007 | 81 | 228 | 1.0 | 4.0 | 0.00 | 0.00 | 0.00 | 35 | 1014.7 |
| 20260505213507 | 81 | 107 | 1.0 | 8.0 | 0.00 | 0.00 | 0.00 | 35 | 1014.9 |
| 20260505213026 | 82 | 212 | 3.0 | 8.0 | 0.00 | 0.00 | 0.00 | 34 | 1015.0 |
| 20260505212503 | 82 | 167 | 3.0 | 7.0 | 0.00 | 0.00 | 0.00 | 33 | 1015.0 |
| 20260505212002 | 83 | 134 | 2.0 | 5.0 | 0.00 | 0.00 | 0.00 | 33 | 1015.0 |
| 20260505211504 | 83 | 236 | 3.0 | 5.0 | 0.00 | 0.00 | 0.00 | 33 | 1015.0 |
| 20260505211004 | 83 | 103 | 2.0 | 8.0 | 0.00 | 0.00 | 0.00 | 33 | 1015.0 |
| 20260505210503 | 84 | 189 | 2.0 | 8.0 | 0.00 | 0.00 | 0.00 | 32 | 1015.0 |
| 20260505210007 | 84 | 130 | 3.0 | 7.0 | 0.00 | 0.00 | 0.00 | 31 | 1015.2 |
| 20260505205507 | 84 | 125 | 1.0 | 5.0 | 0.00 | 0.00 | 0.00 | 33 | 1015.1 |
| 20260505205009 | 84 | 212 | 2.0 | 11.0 | 0.00 | 0.00 | 0.00 | 32 | 1015.2 |
| 20260505204515 | 84 | 112 | 3.0 | 11.0 | 0.00 | 0.00 | 0.00 | 32 | 1015.4 |
| 20260505204005 | 83 | 129 | 3.0 | 7.0 | 0.00 | 0.00 | 0.00 | 32 | 1015.3 |
| 20260505203505 | 84 | 86 | 2.0 | 6.0 | 0.00 | 0.00 | 0.00 | 34 | 1015.3 |
| 20260505203016 | 83 | 124 | 1.0 | 6.0 | 0.00 | 0.00 | 0.00 | 33 | 1015.3 |
| 20260505202507 | 83 | 141 | 2.0 | 6.0 | 0.00 | 0.00 | 0.00 | 32 | 1015.3 |
| 20260505202009 | 84 | 37 | 2.0 | 5.0 | 0.00 | 0.00 | 0.00 | 33 | 1015.3 |
| 20260505201523 | 83 | 122 | 1.0 | 7.0 | 0.00 | 0.00 | 0.00 | 34 | 1015.4 |
| 20260505201009 | 82 | 128 | 4.0 | 7.0 | 0.00 | 0.00 | 0.00 | 33 | 1015.5 |
| 20260505200506 | 83 | 126 | 2.0 | 4.0 | 0.00 | 0.00 | 0.00 | 33 | 1015.5 |
| 20260505200007 | 83 | 182 | 1.0 | 5.0 | 0.00 | 0.00 | 0.00 | 35 | 1015.6 |
| 20260505195504 | 83 | 84 | 2.0 | 11.0 | 0.00 | 0.00 | 0.00 | 35 | 1015.6 |
| 20260505195003 | 83 | 109 | 3.0 | 11.0 | 0.00 | 0.00 | 0.00 | 33 | 1015.7 |
| 20260505194507 | 84 | 61 | 3.0 | 7.0 | 0.00 | 0.00 | 0.00 | 32 | 1015.8 |
| 20260505194005 | 84 | 102 | 1.0 | 7.0 | 0.00 | 0.00 | 0.00 | 33 | 1015.8 |
| 20260505193503 | 85 | 135 | 3.0 | 5.0 | 0.00 | 0.00 | 0.00 | 32 | 1015.9 |
| 20260505193033 | 85 | 118 | 1.0 | 5.0 | 0.00 | 0.00 | 0.00 | 34 | 1015.8 |
| 20260505192506 | 85 | 279 | 2.0 | 10.0 | 0.00 | 0.00 | 0.00 | 35 | 1016.0 |
| 20260505192005 | 84 | 162 | 2.0 | 10.0 | 0.00 | 0.00 | 0.00 | 34 | 1016.0 |
| 20260505191516 | 84 | 251 | 2.0 | 7.0 | 0.00 | 0.00 | 0.00 | 35 | 1016.2 |
| 20260505191006 | 83 | 239 | 2.0 | 7.0 | 0.00 | 0.00 | 0.00 | 36 | 1016.4 |
| 20260505190509 | 83 | 129 | 2.0 | 7.0 | 0.00 | 0.00 | 0.00 | 36 | 1016.4 |
| 20260505190030 | 84 | 158 | 3.0 | 8.0 | 0.00 | 0.00 | 0.00 | 34 | 1016.5 |
| 20260505185500 | 85 | 130 | 2.0 | 8.0 | 0.00 | 0.00 | 0.00 | 33 | 1016.6 |
| 20260505185000 | 84 | 120 | 2.0 | 7.0 | 0.00 | 0.00 | 0.00 | 37 | 1016.7 |
| 20260505184502 | 83 | 260 | 1.0 | 7.0 | 0.00 | 0.00 | 0.00 | 36 | 1016.7 |
| 20260505184000 | 84 | 130 | 1.0 | 6.0 | 0.00 | 0.00 | 0.00 | 37 | 1016.8 |
| 20260505183500 | 83 | 157 | 2.0 | 6.0 | 0.00 | 0.00 | 0.00 | 37 | 1016.7 |
| 20260505183003 | 83 | 127 | 2.0 | 5.0 | 0.00 | 0.00 | 0.00 | 37 | 1016.8 |
| 20260505182500 | 83 | 113 | 2.0 | 5.0 | 0.00 | 0.00 | 0.00 | 34 | 1016.8 |
| 20260505181959 | 83 | 169 | 2.0 | 5.0 | 0.00 | 0.00 | 0.00 | 37 | 1016.9 |
| 20260505181501 | 83 | 100 | 2.0 | 5.0 | 0.00 | 0.00 | 0.00 | 37 | 1016.8 |
| 20260505181000 | 83 | 118 | 2.0 | 5.0 | 0.00 | 0.00 | 0.00 | 36 | 1016.7 |
| 20260505180501 | 82 | 184 | 1.0 | 5.0 | 0.00 | 0.00 | 0.00 | 38 | 1016.6 |
| 20260505180000 | 82 | 122 | 2.0 | 6.0 | 0.00 | 0.00 | 0.00 | 37 | 1016.6 |
| 20260505175500 | 82 | 123 | 2.0 | 8.0 | 0.00 | 0.00 | 0.00 | 39 | 1016.6 |
| 20260505175001 | 81 | 103 | 1.0 | 8.0 | 0.00 | 0.00 | 0.00 | 39 | 1016.7 |
| 20260505174501 | 81 | 241 | 3.0 | 8.0 | 0.00 | 0.00 | 0.00 | 39 | 1016.8 |
| 20260505174001 | 82 | 205 | 1.0 | 4.0 | 0.00 | 0.00 | 0.00 | 39 | 1016.7 |
| 20260505173459 | 82 | 101 | 2.0 | 4.0 | 0.00 | 0.00 | 0.00 | 38 | 1016.9 |
| 20260505173000 | 82 | 243 | 2.0 | 5.0 | 0.00 | 0.00 | 0.00 | 38 | 1017.2 |
| 20260505172500 | 81 | 114 | 2.0 | 5.0 | 0.00 | 0.00 | 0.00 | 39 | 1017.2 |
| 20260505172000 | 80 | 113 | 1.0 | 6.0 | 0.00 | 0.00 | 0.00 | 41 | 1017.2 |
| 20260505171501 | 80 | 116 | 1.0 | 6.0 | 0.00 | 0.00 | 0.00 | 40 | 1017.4 |
| 20260505171000 | 81 | 131 | 2.0 | 6.0 | 0.00 | 0.00 | 0.00 | 38 | 1017.4 |
| 20260505170500 | 81 | 127 | 2.0 | 6.0 | 0.00 | 0.00 | 0.00 | 37 | 1017.5 |
| 20260505170002 | 82 | 98 | 3.0 | 6.0 | 0.00 | 0.00 | 0.00 | 35 | 1017.7 |
| 20260505165501 | 82 | 127 | 1.0 | 4.0 | 0.00 | 0.00 | 0.00 | 37 | 1017.7 |
| 20260505165001 | 81 | 268 | 1.0 | 4.0 | 0.00 | 0.00 | 0.00 | 37 | 1017.7 |
| 20260505164501 | 81 | 132 | 1.0 | 4.0 | 0.00 | 0.00 | 0.00 | 42 | 1017.8 |
| 20260505164000 | 81 | 72 | 1.0 | 4.0 | 0.00 | 0.00 | 0.00 | 43 | 1017.8 |
| 20260505163501 | 82 | 108 | 1.0 | 3.0 | 0.00 | 0.00 | 0.00 | 42 | 1017.8 |
| 20260505163000 | 80 | 293 | 1.0 | 3.0 | 0.00 | 0.00 | 0.00 | 44 | 1018.0 |
| 20260505162459 | 80 | 281 | 1.0 | 4.0 | 0.00 | 0.00 | 0.00 | 44 | 1018.1 |
| 20260505162001 | 80 | 291 | 1.0 | 5.0 | 0.00 | 0.00 | 0.00 | 44 | 1018.2 |
| 20260505161501 | 80 | 140 | 1.0 | 5.0 | 0.00 | 0.00 | 0.00 | 46 | 1018.2 |
| 20260505161001 | 79 | 258 | 2.0 | 5.0 | 0.00 | 0.00 | 0.00 | 45 | 1018.2 |
| 20260505160503 | 80 | 220 | 2.0 | 5.0 | 0.00 | 0.00 | 0.00 | 45 | 1018.4 |
| 20260505153002 | 79 | 91 | 1.0 | 4.0 | 0.00 | 0.00 | 0.00 | 49 | 1018.5 |
| 20260505152459 | 78 | 274 | 0.0 | 4.0 | 0.00 | 0.00 | 0.00 | 50 | 1018.4 |
| 20260505152002 | 78 | 190 | 2.0 | 4.0 | 0.00 | 0.00 | 0.00 | 50 | 1018.4 |
| 20260505151501 | 78 | 232 | 1.0 | 5.0 | 0.00 | 0.00 | 0.00 | 52 | 1018.4 |
| 20260505151001 | 77 | 104 | 1.0 | 5.0 | 0.00 | 0.00 | 0.00 | 53 | 1018.4 |
| 20260505150503 | 76 | 78 | 1.0 | 4.0 | 0.00 | 0.00 | 0.00 | 54 | 1018.4 |
| 20260505140504 | 69 | 75 | 1.0 | 4.0 | 0.00 | 0.00 | 0.00 | 63 | 1018.3 |
| 20260505125001 | 60 | 217 | 0.0 | 2.0 | 0.00 | 0.00 | 0.00 | 79 | 1018.1 |
| 20260505124500 | 60 | 115 | 0.0 | 3.0 | 0.00 | 0.00 | 0.00 | 80 | 1018.1 |
| 20260505124003 | 60 | 101 | 0.0 | 3.0 | 0.00 | 0.00 | 0.00 | 80 | 1018.0 |
| 20260505123501 | 59 | 98 | 0.0 | 2.0 | 0.00 | 0.00 | 0.00 | 82 | 1018.0 |
| 20260505123001 | 58 | 205 | 1.0 | 2.0 | 0.00 | 0.00 | 0.00 | 83 | 1018.0 |
| 20260505122500 | 58 | 189 | 0.0 | 1.0 | 0.00 | 0.00 | 0.00 | 84 | 1018.0 |
| 20260505122001 | 57 | 231 | 0.0 | 1.0 | 0.00 | 0.00 | 0.00 | 85 | 1018.1 |
| 20260505121501 | 56 | 231 | 0.0 | 1.0 | 0.00 | 0.00 | 0.00 | 85 | 1018.1 |
| 20260505121001 | 56 | 231 | 0.0 | 1.0 | 0.00 | 0.00 | 0.00 | 87 | 1018.0 |
| 20260505120504 | 55 | 242 | 0.0 | 1.0 | 0.00 | 0.00 | 0.00 | 87 | 1017.9 |
| 20260505120002 | 55 | 242 | 0.0 | 1.0 | 0.00 | 0.00 | 0.00 | 89 | 1017.9 |
| 20260505115502 | 54 | 242 | 0.0 | 1.0 | 0.00 | 0.00 | 0.00 | 90 | 1018.0 |
| 20260505115003 | 53 | 303 | 0.0 | 0.0 | 0.00 | 0.00 | 0.00 | 91 | 1017.9 |
| 20260505114502 | 52 | 303 | 0.0 | 0.0 | 0.00 | 0.00 | 0.00 | 92 | 1017.9 |
| 20260505114002 | 52 | 303 | 0.0 | 0.0 | 0.00 | 0.00 | 0.00 | 92 | 1017.9 |
| 20260505113500 | 51 | 303 | 0.0 | 0.0 | 0.00 | 0.00 | 0.00 | 91 | 1017.8 |
| 20260505113001 | 51 | 303 | 0.0 | 0.0 | 0.00 | 0.00 | 0.00 | 91 | 1017.8 |
| 20260505112501 | 51 | 303 | 0.0 | 0.0 | 0.00 | 0.00 | 0.00 | 90 | 1017.7 |
| 20260505112001 | 51 | 303 | 0.0 | 0.0 | 0.00 | 0.00 | 0.00 | 90 | 1017.7 |
| 20260505111002 | 50 | 303 | 0.0 | 0.0 | 0.00 | 0.00 | 0.00 | 90 | 1017.7 |
| 20260505110502 | 50 | 303 | 0.0 | 0.0 | 0.00 | 0.00 | 0.00 | 90 | 1017.7 |